Regional Weather Roundup
Issued by NWS Glasgow, MT

Home | Current Version | Previous Version | Text Only | Print | Product List | Glossary On
Versions: 1 2 3 4 5 6 7 8 9 10 11 12 13 14 15 16 17 18 19 20 21 22 23 24 25 26 27 28 29 30 31 32 33 34 35 36 37 38 39 40 41 42 43 44 45 46 47 48 49 50
000
ASUS45 KGGW 270915
RWRGGW
HOURLY REGIONAL WEATHER ROUNDUP FOR NORTHEAST MONTANA
NATIONAL WEATHER SERVICE GLASGOW MONTANA
300 AM MDT WED JUL 27 2016

NOTE: "FAIR" INDICATES FEW OR NO CLOUDS BELOW 12,000 FEET WITH NO
SIGNIFICANT WEATHER AND/OR OBSTRUCTIONS TO VISISBILITY.

NORTHEAST MONTANA


CITY           SKY/WX    TMP DP  RH WIND       PRES   REMARKS
GLASGOW        CLOUDY    62  60  93 SE9       30.06S
PLENTYWOOD       N/A     62  53  72 E6          N/A
WOLF POINT     RAIN      63  61  93 SE3       30.11F
JORDAN           N/A     63  60  90 SE7       30.06F
WINNETT          N/A     60  57  89 NW8G23      N/A
SIDNEY         CLOUDY    61  58  90 N5        30.10S
GLENDIVE       NOT AVBL
MALTA            N/A     62  62 100 W3G12       N/A
OPHEIM           N/A     59  55  88 E7        29.86F

FORT PECK REPORTS


CITY           SKY/WX    TMP DP  RH WIND       PRES   REMARKS
FORT PECK        N/A     63  62  97 E10G29      N/A
THE PINES        N/A     62  59  90 E3          N/A

SOUTHEAST MONTANA


CITY           SKY/WX    TMP DP  RH WIND       PRES   REMARKS
BILLINGS       CLOUDY    65  56  72 N10       30.11S
MILES CITY     CLOUDY    67  59  75 N20       30.11R
BAKER          PTCLDY    58  55  90 S8        30.12R
LIVINGSTON     CLEAR     56  43  61 CALM      30.16F

CENTRAL MONTANA


CITY           SKY/WX    TMP DP  RH WIND       PRES   REMARKS
HAVRE          PTCLDY    59  58  96 CALM      30.10R
LEWISTOWN      CLEAR     58  53  84 SE6       30.13F
GREAT FALLS    CLEAR     54  51  90 W7        30.15R
CUT BANK       PTCLDY    55  53  93 NW6       30.15F
HELENA         CLEAR     63  51  65 W7        30.14F
BUTTE          CLEAR     47  40  76 SE3       30.23S
BOZEMAN        CLEAR     52  45  77 SE7       30.17S

WESTERN MONTANA


CITY           SKY/WX    TMP DP  RH WIND       PRES   REMARKS
MISSOULA       CLEAR     62  52  69 CALM      30.09S
KALISPELL      NOT AVBL

NORTH DAKOTA


CITY           SKY/WX    TMP DP  RH WIND       PRES   REMARKS
WILLISTON      CLOUDY    61  53  75 NE5       30.10S
DICKINSON      PTCLDY    57  56  96 N6        30.08F
MINOT          PTCLDY    62  59  90 N5        30.10R
BISMARCK       CLEAR     63  60  90 N6        30.07R

SOUTHERN SASKATCHEWAN


CITY           SKY/WX    TMP DP  RH WIND       PRES   REMARKS
REGINA         CLEAR     57  50  77 NE7       30.13F
ESTEVAN        PTCLDY    57  55  94 E8        30.11S
SWIFT CURRENT  CLEAR     57  54  88 SE8       30.11F




USA.gov is the U.S. government's official web portal to all federal, state and local government web resources and services.